Time,TemperatureF,DewpointF,PressureIn,WindDirection,WindDirectionDegrees,WindSpeedMPH,WindSpeedGustMPH,Humidity,HourlyPrecipIn,Conditions,Clouds,dailyrainin,SoftwareType,DateUTC
2013-04-10 00:05:00,65.3,56.0,30.10,ESE,107,1.0,3.0,73,0.00,,,0.00,weatherlink.com 1.10,2013-04-10 04:05:00,
2013-04-10 00:20:00,65.9,57.0,30.10,ESE,107,0.0,2.0,72,0.00,,,0.00,weatherlink.com 1.10,2013-04-10 04:20:00,
2013-04-10 00:35:00,65.8,57.0,30.10,East,86,1.0,5.0,73,0.00,,,0.00,weatherlink.com 1.10,2013-04-10 04:35:00,
2013-04-10 00:50:00,65.9,57.0,30.10,ESE,111,2.0,3.0,72,0.00,,,0.00,weatherlink.com 1.10,2013-04-10 04:50:00,
2013-04-10 01:05:00,65.0,57.0,30.10,ESE,119,0.0,2.0,75,0.00,,,0.00,weatherlink.com 1.10,2013-04-10 05:05:00,
2013-04-10 01:20:00,64.0,57.0,30.10,ESE,112,0.0,2.0,77,0.00,,,0.00,weatherlink.com 1.10,2013-04-10 05:20:00,
2013-04-10 01:35:00,63.8,56.0,30.10,ENE,69,1.0,2.0,77,0.00,,,0.00,weatherlink.com 1.10,2013-04-10 05:35:00,
2013-04-10 01:50:00,64.1,56.0,30.10,ESE,109,0.0,2.0,76,0.00,,,0.00,weatherlink.com 1.10,2013-04-10 05:50:00,
2013-04-10 02:05:00,64.5,56.0,30.10,East,89,0.0,4.0,75,0.00,,,0.00,weatherlink.com 1.10,2013-04-10 06:05:00,
2013-04-10 02:20:00,64.6,57.0,30.10,ESE,114,0.0,2.0,75,0.00,,,0.00,weatherlink.com 1.10,2013-04-10 06:20:00,
2013-04-10 02:35:00,64.2,57.0,30.09,ENE,75,0.0,3.0,76,0.00,,,0.00,weatherlink.com 1.10,2013-04-10 06:35:00,
2013-04-10 02:50:00,63.4,56.0,30.09,East,97,1.0,1.0,77,0.00,,,0.00,weatherlink.com 1.10,2013-04-10 06:50:00,
2013-04-10 03:05:00,62.8,56.0,30.08,East,90,0.0,3.0,79,0.00,,,0.00,weatherlink.com 1.10,2013-04-10 07:05:00,
2013-04-10 03:21:00,62.1,56.0,30.08,East,90,0.0,1.0,81,0.00,,,0.00,weatherlink.com 1.10,2013-04-10 07:21:00,
2013-04-10 03:36:00,61.3,56.0,30.08,NNE,30,0.0,4.0,82,0.00,,,0.00,weatherlink.com 1.10,2013-04-10 07:36:00,
2013-04-10 03:51:00,61.0,56.0,30.08,ENE,74,1.0,2.0,83,0.00,,,0.00,weatherlink.com 1.10,2013-04-10 07:51:00,
2013-04-10 04:06:00,60.9,56.0,30.08,ENE,76,0.0,3.0,83,0.00,,,0.00,weatherlink.com 1.10,2013-04-10 08:06:00,
2013-04-10 04:21:00,60.8,56.0,30.07,East,90,1.0,4.0,84,0.00,,,0.00,weatherlink.com 1.10,2013-04-10 08:21:00,
2013-04-10 05:21:00,62.1,57.0,30.07,ESE,115,1.0,7.0,82,0.00,,,0.00,weatherlink.com 1.10,2013-04-10 09:21:00,
2013-04-10 05:51:00,61.1,56.0,30.08,ESE,104,0.0,4.0,84,0.00,,,0.00,weatherlink.com 1.10,2013-04-10 09:51:00,
2013-04-10 06:06:00,60.8,56.0,30.08,ESE,102,0.0,4.0,85,0.00,,,0.00,weatherlink.com 1.10,2013-04-10 10:06:00,
2013-04-10 06:21:00,60.7,57.0,30.08,ENE,76,3.0,4.0,86,0.00,,,0.00,weatherlink.com 1.10,2013-04-10 10:21:00,
2013-04-10 06:36:00,60.6,56.0,30.08,ENE,74,1.0,5.0,86,0.00,,,0.00,weatherlink.com 1.10,2013-04-10 10:36:00,
2013-04-10 06:51:00,60.7,57.0,30.08,ESE,111,2.0,5.0,87,0.00,,,0.00,weatherlink.com 1.10,2013-04-10 10:51:00,
2013-04-10 07:06:00,60.8,57.0,30.09,East,87,2.0,5.0,87,0.00,,,0.00,weatherlink.com 1.10,2013-04-10 11:06:00,
2013-04-10 07:21:00,61.1,57.0,30.10,East,92,3.0,8.0,87,0.00,,,0.00,weatherlink.com 1.10,2013-04-10 11:21:00,
2013-04-10 07:36:00,61.2,57.0,30.10,East,81,3.0,6.0,87,0.00,,,0.00,weatherlink.com 1.10,2013-04-10 11:36:00,
2013-04-10 07:51:00,61.5,58.0,30.10,East,90,2.0,4.0,87,0.00,,,0.00,weatherlink.com 1.10,2013-04-10 11:51:00,
2013-04-10 08:06:00,62.2,58.0,30.10,East,87,5.0,6.0,87,0.00,,,0.00,weatherlink.com 1.10,2013-04-10 12:06:00,
2013-04-10 08:21:00,63.2,59.0,30.10,ESE,107,3.0,5.0,85,0.00,,,0.00,weatherlink.com 1.10,2013-04-10 12:21:00,
2013-04-10 08:36:00,64.3,59.0,30.10,ESE,120,3.0,8.0,83,0.00,,,0.00,weatherlink.com 1.10,2013-04-10 12:36:00,
2013-04-10 08:51:00,65.1,59.0,30.10,ENE,78,0.0,8.0,81,0.00,,,0.00,weatherlink.com 1.10,2013-04-10 12:51:00,
2013-04-10 09:06:00,66.0,60.0,30.10,SE,126,6.0,9.0,80,0.00,,,0.00,weatherlink.com 1.10,2013-04-10 13:06:00,
2013-04-10 09:36:00,67.9,60.0,30.11,ESE,121,1.0,8.0,76,0.00,,,0.00,weatherlink.com 1.10,2013-04-10 13:36:00,
2013-04-10 09:51:00,68.9,61.0,30.11,East,91,5.0,8.0,75,0.00,,,0.00,weatherlink.com 1.10,2013-04-10 13:51:00,
2013-04-10 10:06:00,70.2,61.0,30.11,ENE,76,4.0,7.0,72,0.00,,,0.00,weatherlink.com 1.10,2013-04-10 14:06:00,
2013-04-10 10:21:00,71.2,61.0,30.11,SE,140,3.0,10.0,71,0.00,,,0.00,weatherlink.com 1.10,2013-04-10 14:21:00,
2013-04-10 10:36:00,72.6,61.0,30.11,SSE,157,2.0,8.0,66,0.00,,,0.00,weatherlink.com 1.10,2013-04-10 14:36:00,
2013-04-10 10:51:00,74.2,61.0,30.11,ESE,119,3.0,7.0,63,0.00,,,0.00,weatherlink.com 1.10,2013-04-10 14:51:00,
2013-04-10 11:06:00,75.2,60.0,30.11,SE,126,6.0,9.0,60,0.00,,,0.00,weatherlink.com 1.10,2013-04-10 15:06:00,
2013-04-10 11:22:00,76.1,62.0,30.10,ESE,123,3.0,6.0,61,0.00,,,0.00,weatherlink.com 1.10,2013-04-10 15:22:00,
2013-04-10 11:37:00,77.5,61.0,30.11,ESE,106,1.0,10.0,58,0.00,,,0.00,weatherlink.com 1.10,2013-04-10 15:37:00,
2013-04-10 11:52:00,78.4,61.0,30.11,NE,52,1.0,9.0,56,0.00,,,0.00,weatherlink.com 1.10,2013-04-10 15:52:00,
2013-04-10 12:07:00,78.7,61.0,30.10,ENE,76,5.0,12.0,55,0.00,,,0.00,weatherlink.com 1.10,2013-04-10 16:07:00,
2013-04-10 12:22:00,79.3,60.0,30.10,ESE,104,1.0,12.0,52,0.00,,,0.00,weatherlink.com 1.10,2013-04-10 16:22:00,
2013-04-10 12:37:00,79.3,60.0,30.09,East,86,8.0,11.0,51,0.00,,,0.00,weatherlink.com 1.10,2013-04-10 16:37:00,
2013-04-10 12:52:00,79.9,60.0,30.09,East,84,6.0,13.0,50,0.00,,,0.00,weatherlink.com 1.10,2013-04-10 16:52:00,
2013-04-10 13:07:00,80.5,60.0,30.09,East,89,6.0,9.0,49,0.00,,,0.00,weatherlink.com 1.10,2013-04-10 17:07:00,
2013-04-10 13:22:00,80.9,59.0,30.08,East,101,5.0,16.0,47,0.00,,,0.00,weatherlink.com 1.10,2013-04-10 17:22:00,
2013-04-10 13:37:00,81.7,59.0,30.07,South,169,3.0,11.0,47,0.00,,,0.00,weatherlink.com 1.10,2013-04-10 17:37:00,
2013-04-10 13:52:00,81.7,59.0,30.07,East,87,3.0,11.0,47,0.00,,,0.00,weatherlink.com 1.10,2013-04-10 17:52:00,
2013-04-10 14:07:00,82.1,59.0,30.07,East,86,2.0,10.0,46,0.00,,,0.00,weatherlink.com 1.10,2013-04-10 18:07:00,
2013-04-10 14:22:00,81.4,59.0,30.06,SSE,160,4.0,11.0,46,0.00,,,0.00,weatherlink.com 1.10,2013-04-10 18:22:00,
2013-04-10 14:37:00,82.3,59.0,30.06,ENE,70,5.0,11.0,46,0.00,,,0.00,weatherlink.com 1.10,2013-04-10 18:37:00,
2013-04-10 14:52:00,82.6,60.0,30.05,NE,46,3.0,10.0,46,0.00,,,0.00,weatherlink.com 1.10,2013-04-10 18:52:00,
2013-04-10 15:07:00,82.9,60.0,30.05,ESE,111,3.0,9.0,46,0.00,,,0.00,weatherlink.com 1.10,2013-04-10 19:07:00,
2013-04-10 15:22:00,83.0,60.0,30.04,SE,146,2.0,8.0,45,0.00,,,0.00,weatherlink.com 1.10,2013-04-10 19:22:00,
2013-04-10 15:37:00,83.5,60.0,30.03,East,98,7.0,12.0,45,0.00,,,0.00,weatherlink.com 1.10,2013-04-10 19:37:00,
2013-04-10 15:52:00,83.9,59.0,30.02,East,98,6.0,12.0,43,0.00,,,0.00,weatherlink.com 1.10,2013-04-10 19:52:00,
2013-04-10 16:08:00,83.7,60.0,30.02,ESE,111,3.0,11.0,44,0.00,,,0.00,weatherlink.com 1.10,2013-04-10 20:08:00,
2013-04-10 16:23:00,84.2,60.0,30.01,SE,129,3.0,9.0,44,0.00,,,0.00,weatherlink.com 1.10,2013-04-10 20:23:00,
2013-04-10 16:38:00,84.5,60.0,30.00,East,84,1.0,9.0,43,0.00,,,0.00,weatherlink.com 1.10,2013-04-10 20:38:00,
2013-04-10 16:53:00,85.1,59.0,29.99,ENE,75,3.0,8.0,41,0.00,,,0.00,weatherlink.com 1.10,2013-04-10 20:53:00,
2013-04-10 17:08:00,85.1,59.0,29.99,SE,128,1.0,8.0,41,0.00,,,0.00,weatherlink.com 1.10,2013-04-10 21:08:00,
2013-04-10 17:23:00,85.4,59.0,29.98,ESE,105,1.0,8.0,41,0.00,,,0.00,weatherlink.com 1.10,2013-04-10 21:23:00,
2013-04-10 17:38:00,85.3,58.0,29.98,NNE,28,3.0,9.0,40,0.00,,,0.00,weatherlink.com 1.10,2013-04-10 21:38:00,
2013-04-10 17:53:00,85.4,58.0,29.98,ENE,57,2.0,9.0,40,0.00,,,0.00,weatherlink.com 1.10,2013-04-10 21:53:00,
2013-04-10 18:08:00,84.7,58.0,29.98,SE,126,0.0,11.0,41,0.00,,,0.00,weatherlink.com 1.10,2013-04-10 22:08:00,
2013-04-10 18:23:00,85.3,58.0,29.98,SE,124,2.0,9.0,39,0.00,,,0.00,weatherlink.com 1.10,2013-04-10 22:23:00,
2013-04-10 18:38:00,84.6,58.0,29.98,ENE,75,2.0,8.0,41,0.00,,,0.00,weatherlink.com 1.10,2013-04-10 22:38:00,
2013-04-10 18:53:00,83.8,58.0,29.98,ENE,77,4.0,9.0,41,0.00,,,0.00,weatherlink.com 1.10,2013-04-10 22:53:00,
2013-04-10 19:08:00,82.1,57.0,29.96,ENE,63,3.0,7.0,43,0.00,,,0.00,weatherlink.com 1.10,2013-04-10 23:08:00,
2013-04-10 19:23:00,80.7,57.0,29.97,East,86,2.0,9.0,45,0.00,,,0.00,weatherlink.com 1.10,2013-04-10 23:23:00,
2013-04-10 19:38:00,79.8,56.0,29.97,ENE,57,5.0,9.0,44,0.00,,,0.00,weatherlink.com 1.10,2013-04-10 23:38:00,
2013-04-10 19:53:00,78.9,56.0,29.96,ENE,76,2.0,7.0,46,0.00,,,0.00,weatherlink.com 1.10,2013-04-10 23:53:00,
2013-04-10 20:08:00,78.1,56.0,29.96,East,96,2.0,7.0,46,0.00,,,0.00,weatherlink.com 1.10,2013-04-11 00:08:00,
2013-04-10 20:23:00,77.3,56.0,29.96,East,99,0.0,5.0,48,0.00,,,0.00,weatherlink.com 1.10,2013-04-11 00:23:00,
2013-04-10 20:38:00,76.5,56.0,29.96,East,98,1.0,4.0,49,0.00,,,0.00,weatherlink.com 1.10,2013-04-11 00:38:00,
2013-04-10 20:53:00,75.6,56.0,29.95,ESE,109,0.0,2.0,51,0.00,,,0.00,weatherlink.com 1.10,2013-04-11 00:53:00,
2013-04-10 21:08:00,75.0,57.0,29.95,East,88,1.0,5.0,53,0.00,,,0.00,weatherlink.com 1.10,2013-04-11 01:08:00,
2013-04-10 21:23:00,74.3,56.0,29.95,NE,44,0.0,3.0,54,0.00,,,0.00,weatherlink.com 1.10,2013-04-11 01:23:00,
2013-04-10 21:38:00,73.4,57.0,29.95,NE,46,0.0,1.0,56,0.00,,,0.00,weatherlink.com 1.10,2013-04-11 01:38:00,
2013-04-10 21:53:00,72.4,57.0,29.95,East,84,0.0,3.0,58,0.00,,,0.00,weatherlink.com 1.10,2013-04-11 01:53:00,
2013-04-10 22:08:00,71.6,57.0,29.95,ENE,73,2.0,5.0,61,0.00,,,0.00,weatherlink.com 1.10,2013-04-11 02:08:00,
2013-04-10 22:24:00,72.3,57.0,29.95,East,84,2.0,7.0,59,0.00,,,0.00,weatherlink.com 1.10,2013-04-11 02:24:00,
2013-04-10 22:38:00,72.9,57.0,29.94,East,91,2.0,9.0,58,0.00,,,0.00,weatherlink.com 1.10,2013-04-11 02:38:00,
2013-04-10 22:53:00,72.9,57.0,29.94,NE,39,1.0,8.0,58,0.00,,,0.00,weatherlink.com 1.10,2013-04-11 02:53:00,
2013-04-10 23:39:00,71.5,57.0,29.94,ENE,75,3.0,7.0,60,0.00,,,0.00,weatherlink.com 1.10,2013-04-11 03:39:00,
2013-04-10 23:54:00,70.9,56.0,29.95,NE,36,2.0,7.0,60,0.00,,,0.00,weatherlink.com 1.10,2013-04-11 03:54:00,